Location: Buttermere
(51.3333°N, 1.5167°W)
Time: 22:22:58
(UTC+00:00)

Meteor 1-12 Rocket - Pass Details

Date: 18 September 2020
Orbit: 854 x 927 km, 81.2° (Epoch: 20 October)

Event Time Altitude Azimuth Distance (km) Brightness Sun altitude
Rises 19:51:00 0° 190° (S) 3,536 7.3 -15.7°
Reaches altitude 10° 19:53:29 10° 191° (S) 2,590 6.6 -16.1°
Maximum altitude 19:59:24 89° 284° (WNW) 905 4.3 -16.9°
Drops below altitude 10° 20:05:16 10° 13° (NNE) 2,558 6.9 -17.8°
Sets 20:07:42 0° 13° (NNE) 3,491 7.6 -18.1°
